RH
39 38 37 37 38 41 47 64 94 86 66 64 76 72 74 80 82 83 76 82 87 86 96 96 98 97 90 87 64 58 72 67 81 93 95 88 94 92
42 40 39 41 41 39 37 36 42 65 89 66 68 74 79 80 78 81 79 78 73 78 93 96 99 99 100 93 79 66 69 72 82 98 99 97 98 88
31 33 34 36 36 38 43 45 45 46 48 31 36 38 44 56 65 75 74 74 75 67 63 73 83 89 97 99 94 74 73 74 78 98 99 99 99 88
4 3 3 4 7 12 22 30 42 46 55 51 37 36 33 30 28 36 46 63 66 70 76 71 72 96 92 98 98 80 78 79 86 95 99 99 98 98
5 4 4 4 4 4 4 4 9 21 45 61 50 42 42 39 36 36 40 55 57 64 87 78 76 80 95 89 99 98 93 96 94 99 100 99 99 99
5 5 5 4 4 4 4 4 4 8 19 48 57 43 44 39 47 47 42 39 38 64 66 74 83 85 82 87 98 98 99 94 99 99 99 99 99 99
6 5 5 4 4 4 4 3 5 12 22 40 47 57 43 44 52 52 51 47 41 40 43 53 76 81 73 85 92 98 99 98 99 99 99 99 99 99
8 6 6 5 5 4 4 4 4 10 19 54 62 70 58 67 58 53 52 49 39 43 48 43 59 64 83 92 90 92 98 98 99 99 99 99 98 99
9 8 7 7 7 8 7 6 5 8 18 53 78 81 80 79 71 59 56 52 43 39 48 48 98 63 75 100 100 87 95 99 99 99 99 99 98 98
11 11 11 10 12 12 9 7 6 7 13 20 55 81 83 80 76 67 57 52 43 38 46 40 56 59 54 82 99 96 98 99 98 98 98 99 98 98
14 15 15 16 18 15 12 9 10 12 13 18 52 82 86 79 72 66 57 59 50 45 52 58 80 63 66 80 98 98 98 99 99 98 98 98 98 98
16 13 17 22 21 18 13 16 20 20 20 31 57 74 77 72 69 83 86 100 100 85 57 66 69 97 93 87 100 98 98 99 98 97 97 98 98 97
24 25 23 24 25 18 16 21 26 30 40 67 79 81 86 88 88 86 94 100 100 100 90 100 93 99 100 97 99 98 98 98 98 97 98 97 98 97
33 28 27 30 27 18 18 22 28 33 41 85 90 93 98 100 100 100 97 98 100 100 100 99 98 98 98 98 98 98 98 98 97 97 97 97 95 91
36 30 33 34 30 18 18 22 26 34 86 93 96 95 94 93 97 98 99 100 97 98 98 98 98 98 98 97 98 97 98 97 97 97 97 95 38 17
37 32 37 38 36 21 18 22 29 67 92 96 95 95 93 97 99 97 96 97 96 96 97 97 97 97 97 96 96 97 97 97 97 95 48 16 13 15
41 37 38 38 32 17 16 20 28 46 93 96 95 94 97 98 98 96 96 96 96 96 97 97 97 97 96 96 97 97 96 72 29 15 14 17 24 31
40 42 42 40 34 17 16 19 26 70 96 95 94 95 96 96 96 96 96 96 96 96 96 96 96 97 97 90 47 17 14 14 15 21 28 34 41 46
44 45 44 40 31 18 18 21 41 96 95 96 95 96 95 96 96 96 96 96 96 96 97 95 76 22 15 14 14 16 21 30 39 43 46 48 50 50
44 48 43 40 28 18 19 24 90 96 96 96 96 96 96 96 96 96 95 96 96 83 29 17 16 18 27 35 39 41 42 42 44 49 56 60 67 72
44 45 44 40 24 18 21 39 96 96 96 96 96 96 96 96 96 96 96 87 34 20 21 34 43 43 42 41 45 54 63 72 82 87 86 87 91 94
46 46 43 37 22 20 22 87 96 96 96 96 96 96 96 96 96 71 28 19 28 46 48 44 47 58 66 75 82 67 45 55 55 46 54 76 90 90
45 47 42 32 20 23 43 96 96 96 96 96 96 96 93 36 21 20 39 51 50 50 60 64 76 75 23 18 19 18 22 29 30 38 47 69 93 85
Wind_Speed
54 53 52 51 53 55 57 58 54 61 64 63 60 58 59 59 62 59 54 52 54 52 50 53 54 55 59 56 52 50 48 49 49 50 51 50 49 49
53 53 53 53 53 52 52 54 56 59 63 66 66 64 61 60 59 57 55 51 49 50 51 56 57 57 56 55 55 54 52 52 51 53 53 52 51 51
51 52 52 52 53 52 52 53 54 56 60 62 63 64 64 64 62 61 60 59 56 52 50 52 57 56 51 56 58 56 55 54 53 56 58 54 53 52
49 49 50 51 52 52 53 54 53 53 57 60 58 59 60 58 58 60 60 58 58 55 52 52 50 49 50 52 60 60 57 58 58 60 59 58 56 54
49 50 50 50 50 53 54 56 58 59 57 57 59 59 56 55 56 56 55 53 53 56 48 50 52 50 52 55 54 61 58 60 59 58 61 60 65 62
49 49 50 51 52 54 56 58 61 63 62 61 59 60 57 56 55 55 56 53 54 50 52 49 46 47 47 51 55 46 55 62 55 59 61 58 56 58
50 50 51 52 52 53 57 58 60 62 63 64 63 60 59 57 53 52 54 54 56 54 49 47 45 42 43 40 46 40 51 57 55 53 54 52 59 56
54 53 52 52 53 53 54 56 58 59 61 60 61 60 59 55 53 52 52 53 58 52 51 51 44 43 41 39 46 43 49 35 43 53 56 51 46 54
54 54 53 51 51 50 48 49 52 54 55 55 57 57 58 53 52 51 51 51 53 51 50 50 46 44 40 38 39 40 42 39 40 44 50 49 49 48
53 51 50 49 47 47 49 52 51 48 47 48 51 52 52 52 51 51 51 52 53 52 50 52 48 48 45 40 34 39 32 29 38 41 47 47 48 41
50 48 47 47 47 46 49 50 45 42 39 42 45 47 47 48 48 50 51 51 55 53 50 49 48 45 45 41 36 41 37 38 40 44 44 45 42 38
49 48 46 45 45 44 44 43 43 41 39 38 38 39 40 42 43 43 43 44 46 53 50 45 44 40 45 42 40 44 43 46 38 33 34 37 37 36
49 49 47 45 43 41 38 37 38 38 37 40 42 39 39 39 40 39 37 38 41 45 42 43 48 41 40 42 36 38 41 41 38 34 33 33 34 28
46 46 45 44 41 39 36 33 33 34 36 40 40 43 41 38 34 34 34 35 36 40 38 44 45 41 43 36 35 33 30 35 31 30 32 33 26 16
44 44 43 42 40 38 33 32 32 33 35 39 43 41 36 33 30 33 33 37 35 38 38 35 36 30 27 27 24 18 24 29 29 31 29 17 14 20
45 44 42 40 38 37 32 30 30 31 36 41 41 37 35 31 28 29 29 24 18 17 19 19 20 20 18 16 14 17 22 26 25 16 12 18 20 20
47 44 42 41 39 36 32 31 30 32 36 41 41 37 33 28 25 24 17 7 1 1 2 6 10 11 14 15 17 19 15 10 13 15 15 16 18 20
43 42 41 40 38 36 35 34 32 33 40 42 38 33 27 23 21 16 9 4 3 3 7 10 10 12 11 7 7 9 10 11 11 13 15 18 21 24
40 38 37 37 36 34 34 34 35 38 43 40 33 26 21 18 14 9 8 5 6 7 9 9 10 7 6 6 8 9 10 12 13 15 17 19 21 24
37 36 35 34 34 34 33 34 36 42 40 34 26 21 15 7 6 10 10 9 12 15 11 8 8 7 6 6 7 8 10 10 12 14 16 17 19 22
34 33 32 32 32 32 32 32 39 41 35 24 17 7 5 11 15 16 17 18 15 12 10 6 3 2 3 4 5 6 8 8 9 12 14 16 17 19
32 31 29 29 30 31 32 34 41 35 22 13 9 13 17 18 22 21 16 13 11 8 5 3 1 1 2 3 5 6 5 5 7 9 11 13 15 15
30 28 28 28 29 31 31 38 36 22 11 12 13 19 23 20 17 15 13 10 8 6 5 5 4 4 3 4 4 6 7 7 8 10 12 12 11 9
Wind_Direction
287 286 285 283 282 280 279 279 280 281 280 279 279 276 275 276 279 280 274 268 272 270 262 256 260 263 262 268 267 258 255 253 251 251 249 250 251 253
288 288 287 285 283 282 282 281 279 279 280 279 279 279 279 279 280 280 281 279 273 271 268 261 261 265 264 258 262 259 257 254 248 250 250 247 248 251
292 291 290 289 288 288 286 284 282 282 282 280 282 282 280 280 278 278 278 278 279 277 273 269 266 267 268 264 257 255 254 256 248 249 250 249 248 251
297 295 293 292 292 292 291 290 287 285 284 283 280 280 280 280 279 278 276 274 276 276 274 273 272 269 264 259 257 253 252 254 251 251 253 246 247 253
298 296 295 295 294 293 291 290 289 288 286 285 284 281 281 281 280 280 280 279 274 274 276 273 272 269 270 270 260 246 252 248 247 255 260 244 244 246
297 295 294 292 291 289 288 288 288 287 286 285 284 283 283 282 282 284 283 282 280 276 272 272 275 275 279 275 258 254 253 248 249 254 253 256 247 251
298 297 296 295 294 291 289 287 285 285 284 285 284 283 281 281 281 281 282 284 284 285 282 278 270 274 276 279 279 278 256 255 253 256 247 260 245 253
303 302 301 299 296 293 291 288 285 285 283 285 285 284 281 283 282 282 283 283 283 281 286 284 283 268 269 274 270 274 265 261 263 244 252 250 250 249
308 308 306 305 302 301 297 290 285 280 280 284 285 285 284 285 285 282 281 281 281 281 279 278 276 279 267 262 273 280 268 265 264 246 251 250 247 247
307 307 307 305 304 303 301 298 293 286 282 281 282 285 284 283 282 282 283 281 279 278 275 274 274 276 273 269 275 270 269 267 256 248 252 248 251 244
308 308 308 308 310 309 308 305 299 291 284 280 280 283 284 281 281 281 279 282 280 277 276 272 272 277 275 267 265 271 260 268 266 256 252 245 243 234
308 308 311 311 310 310 309 305 301 301 296 289 284 282 282 279 277 278 279 278 277 277 275 272 274 273 275 263 268 268 256 256 255 245 236 238 230 229
309 312 312 313 313 314 311 306 306 305 301 297 295 295 296 287 281 278 281 275 272 273 273 271 271 267 265 266 260 266 263 247 247 231 231 224 227 230
314 314 315 317 317 318 315 311 307 303 303 299 302 301 297 293 286 283 284 279 269 271 265 262 269 259 264 256 262 258 252 241 223 221 218 222 226 220
315 314 318 320 318 320 317 315 312 309 303 307 305 307 308 297 287 287 280 280 272 262 260 257 254 249 249 250 243 237 242 215 207 215 223 225 219 222
316 319 321 320 321 322 317 317 316 312 311 311 314 313 308 297 293 288 279 275 269 263 252 245 239 235 223 205 200 210 195 203 209 221 214 216 219 219
316 319 320 323 324 325 323 323 321 314 314 319 318 313 306 298 294 283 269 246 222 6 182 176 172 178 174 188 196 194 199 199 204 209 211 214 221 227
316 319 320 323 325 327 327 326 326 321 320 324 319 312 307 303 295 275 225 162 164 191 171 168 172 177 177 163 167 183 194 198 205 213 221 227 232 236
317 317 320 324 328 330 330 330 330 324 326 324 320 317 312 303 279 226 156 129 137 142 150 113 88 123 158 177 187 196 206 216 225 232 235 235 236 239
319 321 323 328 331 331 333 332 327 328 330 329 328 324 315 292 176 137 116 115 120 97 108 128 136 148 168 196 218 231 238 240 239 240 240 240 239 246
322 323 326 332 331 333 333 333 329 333 334 336 341 355 96 119 116 108 113 104 110 118 117 122 145 190 224 239 250 251 251 253 259 259 258 254 251 247
322 324 331 333 333 334 336 332 336 338 344 11 50 92 100 104 102 96 101 105 102 99 106 127 129 352 321 306 302 292 260 237 237 242 245 243 245 246
323 328 334 333 336 337 338 337 341 348 23 59 85 95 94 95 102 102 98 92 81 74 57 35 27 44 30 336 301 275 258 244 234 233 228 228 218 214